This is the latest recevied weather packets stored in our database for station/object KD4MBW. If no packets are shown the sender has not sent any weather packets the latest 10 day(s).
| Time | Temp. | Humidity | Pressure | Rain* | Wind** | Luminosity | Snow |
|---|---|---|---|---|---|---|---|
| 1778107005 | 26.67° C | 72% | 1014.5 hPa | 0 mm | - | 170 W/m² | - |
| 1778106701 | 26.67° C | 71% | 1014.3 hPa | 0 mm | - | 184 W/m² | - |
| 1778106398 | 27.22° C | 71% | 1014.3 hPa | 0 mm | - | 199 W/m² | - |
| 1778106094 | 27.22° C | 70% | 1014.5 hPa | 0 mm | - | 212 W/m² | - |
| 1778105792 | 27.22° C | 70% | 1014.5 hPa | 0 mm | - | 227 W/m² | - |
| 1778105490 | 27.22° C | 66% | 1014.7 hPa | 0 mm | - | 244 W/m² | - |
| 1778105186 | 27.22° C | 66% | 1014.7 hPa | 0 mm | - | 259 W/m² | - |
| 1778104881 | 27.22° C | 67% | 1014.8 hPa | 0 mm | - | 275 W/m² | - |
| 1778104579 | 27.22° C | 67% | 1014.8 hPa | 0 mm | - | 290 W/m² | - |
| 1778104274 | 27.78° C | 69% | 1015 hPa | 0 mm | - | 310 W/m² | - |
| 1778103971 | 27.22° C | 71% | 1015.1 hPa | 0 mm | - | 324 W/m² | - |
| 1778103669 | 27.78° C | 69% | 1015.1 hPa | 0 mm | - | 344 W/m² | - |
| 1778103366 | 27.78° C | 69% | 1015.1 hPa | 0 mm | - | 357 W/m² | - |
| 1778103063 | 27.78° C | 69% | 1014.9 hPa | 0 mm | - | 372 W/m² | - |
| 1778102761 | 27.78° C | 69% | 1015.2 hPa | 0 mm | - | 387 W/m² | - |
| 1778102455 | 27.78° C | 68% | 1015 hPa | 0 mm | - | 403 W/m² | - |
| 1778102151 | 27.78° C | 66% | 1015 hPa | 0 mm | - | 419 W/m² | - |
| 1778101849 | 27.78° C | 69% | 1015.2 hPa | 0 mm | - | 437 W/m² | - |
| 1778101545 | 27.78° C | 68% | 1015.1 hPa | 0 mm | - | 453 W/m² | - |
| 1778101241 | 27.78° C | 69% | 1015.4 hPa | 0 mm | - | 473 W/m² | - |
| 1778100938 | 27.22° C | 70% | 1015.3 hPa | 0 mm | - | 488 W/m² | - |
| 1778100633 | 27.78° C | 68% | 1015.5 hPa | 0 mm | - | 495 W/m² | - |
| 1778100332 | 27.22° C | 70% | 1015.5 hPa | 0 mm | - | 513 W/m² | - |
| 1778100028 | 27.78° C | 68% | 1015.7 hPa | 0 mm | - | 525 W/m² | - |
| 1778099727 | 27.78° C | 69% | 1015.6 hPa | 0 mm | - | 537 W/m² | - |
* Rain latest hour (hover to see other rain measurements)
** Current wind speed in m/s (hover to see current wind gust speed)